TimeMDT,TemperatureF,Dew PointF,Humidity,Sea Level PressureIn,VisibilityMPH,Wind Direction,Wind SpeedMPH,Gust SpeedMPH,PrecipitationIn,Events,Conditions,WindDirDegrees,DateUTC
12:53 AM,42.1,37.0,82,29.79,10.0,North,10.4,-,N/A,,Clear,10,2012-10-24 06:53:00
1:53 AM,41.0,37.0,86,29.80,10.0,North,10.4,-,N/A,,Partly Cloudy,10,2012-10-24 07:53:00
2:53 AM,41.0,37.0,86,29.81,10.0,North,10.4,-,N/A,,Partly Cloudy,360,2012-10-24 08:53:00
3:53 AM,42.1,37.9,85,29.83,10.0,North,10.4,-,N/A,,Overcast,350,2012-10-24 09:53:00
4:53 AM,44.1,37.9,79,29.83,10.0,NNW,8.1,-,N/A,,Overcast,340,2012-10-24 10:53:00
5:53 AM,44.1,37.9,79,29.85,10.0,North,9.2,-,N/A,,Overcast,350,2012-10-24 11:53:00
6:53 AM,44.1,37.9,79,29.87,10.0,NNE,8.1,-,N/A,,Overcast,30,2012-10-24 12:53:00
7:53 AM,43.0,37.9,82,29.88,10.0,North,6.9,-,N/A,,Mostly Cloudy,350,2012-10-24 13:53:00
8:53 AM,46.0,37.0,71,29.88,10.0,NNE,10.4,-,N/A,,Clear,30,2012-10-24 14:53:00
9:53 AM,46.9,36.0,66,29.89,10.0,ENE,12.7,-,N/A,,Overcast,60,2012-10-24 15:53:00
10:53 AM,48.9,37.0,64,29.88,10.0,NE,11.5,-,N/A,,Overcast,40,2012-10-24 16:53:00
11:53 AM,50.0,36.0,59,29.87,10.0,ENE,11.5,-,N/A,,Overcast,60,2012-10-24 17:53:00
12:53 PM,50.0,35.1,57,29.84,10.0,ENE,13.8,19.6,N/A,,Overcast,60,2012-10-24 18:53:00
1:53 PM,48.9,35.1,59,29.83,10.0,ENE,12.7,-,N/A,,Overcast,70,2012-10-24 19:53:00
3:53 PM,46.9,35.1,63,29.81,10.0,NE,13.8,-,N/A,,Overcast,40,2012-10-24 21:53:00
4:53 PM,46.0,34.0,63,29.82,10.0,NE,13.8,-,N/A,,Overcast,50,2012-10-24 22:53:00
5:07 PM,46.4,33.8,62,29.85,10.0,ENE,11.5,-,N/A,,Overcast,60,2012-10-24 23:07:00
5:53 PM,45.0,35.1,68,29.83,10.0,NE,15.0,-,N/A,,Overcast,50,2012-10-24 23:53:00
6:53 PM,36.0,33.1,89,29.90,5.0,North,21.9,32.2,0.04,Rain,Rain,360,2012-10-25 00:53:00
7:12 PM,33.8,32.0,93,29.91,2.0,North,18.4,-,0.01,Snow,Light Snow,360,2012-10-25 01:12:00
7:20 PM,33.8,30.2,87,29.92,1.5,North,21.9,-,0.02,Snow,Light Snow,360,2012-10-25 01:20:00
7:30 PM,33.8,30.2,87,29.92,0.8,North,24.2,33.4,0.02,Snow,Light Snow,10,2012-10-25 01:30:00
7:46 PM,32.0,30.2,93,29.94,0.5,North,24.2,35.7,0.03,Fog,Fog,10,2012-10-25 01:46:00
7:53 PM,32.0,30.9,96,29.98,0.5,North,27.6,33.4,0.04,Fog,Fog,360,2012-10-25 01:53:00
8:05 PM,32.0,30.2,93,29.93,0.5,NNE,26.5,36.8,N/A,Fog,Fog,20,2012-10-25 02:05:00
8:34 PM,30.2,30.2,100,29.97,0.5,NNE,21.9,27.6,0.01,Fog-Snow,Snow,20,2012-10-25 02:34:00
8:53 PM,30.9,28.9,92,30.01,0.5,North,24.2,29.9,0.02,Fog-Snow,Snow,10,2012-10-25 02:53:00
9:53 PM,30.0,28.0,92,30.02,0.8,North,17.3,-,0.02,Snow,Light Snow,10,2012-10-25 03:53:00
10:53 PM,30.0,28.0,92,30.04,1.0,North,16.1,-,0.01,Snow,Light Snow,360,2012-10-25 04:53:00
11:05 PM,30.2,28.4,93,30.03,0.8,North,15.0,-,0.00,Snow,Light Snow,350,2012-10-25 05:05:00
11:23 PM,30.2,28.4,93,30.04,0.8,NNW,15.0,-,0.00,Snow,Light Snow,340,2012-10-25 05:23:00
11:46 PM,28.4,28.4,100,30.04,1.0,North,17.3,-,0.00,Snow,Light Snow,350,2012-10-25 05:46:00
11:53 PM,28.9,28.0,96,30.05,1.2,North,17.3,-,0.00,Snow,Light Snow,350,2012-10-25 05:53:00